www.pogodaiklimat.ru

Погода и климат >> Архив погоды >> Россия >> Ненецкий АО >> Колгуев Остров


АРХИВ ПОГОДЫ на Колгуевом Острове

Время (UTC), дата Ветер
(напр.,м/с)
 
Видим.   Явления Облачность Т
(С)
Тd
(С)
f
(%)
Тe
(С)
Тes
(С)
Комфортность P
(гПа)
Po
(гПа)
Тmin
(С)
Tmax
(С)
R
(мм)
R24
(мм)
S
(см)
03 13.07 В 4 500 м туман ?/? +4.3 +4.2 99 -0 -0 1014.3 1011.4 +0.9
06 13.07 В 4 500 м туман ?/? +4.5 +4.4 99 -0 -0 1014.1 1011.1
09 13.07 СВ 4 20 км в посл. час туман 10/10 300 м
[St]
+5.7 +5.3 97 +2 +2 1013.5 1010.5
12 13.07 В 5 20 км в посл. час дождь {туман} 10/10 600 м
[Sc]
+6.2 +5.8 97 +2 +2 1012.4 1009.4
15 13.07 В 5 20 км 4/4 600 м
[Sc]
+7.2 +5.7 90 +3 +4 1011.6 1008.7 +8.0 2
18 13.07 В 4 20 км 3/0
[Ac trans]
+6.3 +5.3 93 +2 +2 1010.6 1007.7
03 14.07 С 1 20 км 1/0
[Ci fib]
+6.7 +5.5 92 +6 +9 1009.2 1006.2 +3.4
06 14.07 С 2 20 км 1/0
[Ci fib]
+6.9 +5.5 91 +5 +12 1009.5 1006.5
09 14.07 С 3 20 км 8/4 600 м
[Sc Ci fib]
+7.4 +5.9 90 +4 +9 1010.1 1007.1
12 14.07 З 5 20 км 8/8 600 м
[Sc]
+10.5 +8.1 85 +8 +8 1010.9 1008.0
15 14.07 З 4 20 км 10/10 600 м
[Sc]
+8.5 +7.4 93 +5 +5 1012.0 1009.1 +10.6
18 14.07 СВ 2 20 км 10/10 600 м
[Sc]
+6.4 +6.0 97 +4 +4 1012.1 1009.2
03 15.07 СВ 2 20 км 10/10 600 м
[Sc]
+6.3 +5.4 94 +4 +4 1014.0 1011.0 +5.3
06 15.07 С 2 20 км 10/10 600 м
[Sc]
+6.2 +5.6 96 +4 +4 1015.2 1012.2
09 15.07 СВ 2 20 км 10/10 600 м
[Sc]
+6.4 +5.0 91 +4 +4 1016.3 1013.3
12 15.07 СВ 2 20 км 10/10 600 м
[Sc]
+7.1 +5.6 90 +5 +5 1016.9 1013.9
15 15.07 СВ 3 20 км 10/10 600 м
[Sc]
+6.2 +4.8 91 +3 +3 1017.6 1014.6 +7.1
18 15.07 В 5 500 м туман ?/? +6.2 +6.1 99 +2 +2 1018.1 1015.1
03 16.07 В 5 500 м туман ?/? +5.7 +5.6 99 +1 +1 1018.2 1015.2 +4.2
06 16.07 СВ 6 20 км дымка {туман} 10/10 600 м
[Sc]
+7.5 +6.1 91 +3 +3 1016.9 1013.9
09 16.07 СВ 8-10
{10}
20 км 10/10 600 м
[Sc]
+6.9 +5.5 91 +2 +2 1015.6 1012.6
12 16.07 СВ 9-12
{12}
4000 м слаб. дождь 10/0 600 м
[As op]
+6.5 +5.4 93 +1 +1 1012.5 1009.6
15 16.07 СВ 11-15
{15}
20 км {дождь} 10/10 600 м
[Sc]
+6.8 +6.1 95 +1 +1 1009.9 1007.0 +7.7 3
18 16.07 СВ 9-14
{16}
4000 м слаб. дождь 10/0 600 м
[As op]
+6.7 +6.1 96 +1 +1 1006.2 1003.3
03 17.07 ЮЗ 9-12
{12}
4000 м слаб. морось {туман} 10/10 300 м
[St]
+5.7 +5.4 98 -1 -1 1006.0 1003.1 +5.7 4
06 17.07 ЮЗ 10-13
{13}
20 км {морось, туман} 10/10 600 м
[Sc]
+7.0 +5.5 90 +1 +1 1009.4 1006.4
09 17.07 ЮЗ 10-13
{13}
20 км 10/10 600 м
[Sc]
+9.3 +6.6 83 +5 +5 1012.3 1009.4
12 17.07 ЮЗ 9-13
{14}
20 км 9/9 600 м
[Sc]
+13.0 +8.0 72 +10 +10 1014.3 1011.4
15 17.07 З 5
{14}
20 км 8/8 600 м
[Sc Ci fib]
+10.7 +6.3 74 +8 +8 1016.9 1013.9 +13.4
18 17.07 ЮЗ 3 20 км 3/0
[Ci fib]
+8.3 +5.6 83 +6 +6 1018.1 1015.1
03 18.07 З 3 20 км 3/0
[Ci fib]
+10.2 +6.0 75 +8 +10 1021.9 1019.0 +3.8
06 18.07 С 4 20 км 6/3 600 м
[Sc Ci fib]
+12.5 +6.1 65 +11 +14 1022.8 1019.8
09 18.07 СЗ 5 20 км 4/3 600 м
[Sc Ci fib]
+12.2 +5.8 65 +10 +14 1023.2 1020.3
12 18.07 СЗ 5 20 км 4/0
[Ci fib]
+10.7 +5.7 71 +8 +11 1023.8 1020.8
15 18.07 С 3 20 км 6/0
[Ci fib]
+7.8 +5.6 86 +5 +6 1023.9 1021.0 +13.1
18 18.07 С 2 20 км 8/3 600 м
[Sc Ci fib]
+7.1 +5.6 90 +5 +5 1023.3 1020.3
03 19.07 С 7 20 км 4/4 600 м
[Sc]
+6.1 +5.5 96 +1 +1 1020.8 1017.8 +5.6
06 19.07 С 8-11
{11}
20 км 9/9 600 м
[Sc]
+5.9 +5.0 94 0 0 1019.8 1016.9 +5.1
09 19.07 С 8-10
{11}
20 км 10/0
[Ac As]
+6.7 +5.2 90 +1 +2 1018.6 1015.6
12 19.07 СВ 7-10
{12}
20 км 10/0
[As op]
+6.6 +4.9 89 +2 +2 1017.4 1014.4
15 19.07 С 10-13
{13}
4000 м слаб. дождь 10/0 600 м
[As op]
+6.5 +5.3 92 +1 +1 1015.0 1012.1 +7.2 2

 

Местоположение метеостанции Колгуев Остров (Ненецкий АО, Россия): широта 69.53 долгота 49.08 высота над уровнем моря 24 м.

В архиве по умолчанию представлена погода на Колгуевом Острове за последнюю неделю. Архивные данные за месяц целиком и за предыдущие месяцы, начиная с января 2011 года, Вы можете получить, выбрав интересующий диапазон дат из раскрывающегося списка и нажав кнопку "Ввод!".


*Определитесь, кто Вы:
робот инопланетянин человек

Внимание! Время в таблицах - всемирное. Для получения местного времени необходимо прибавить поправку, которая равна 3 ч.

Смотрите также архив погоды в соседних городах и на ближайших метеорологических станциях:

Погода в Бугрино (Ненецкий АО, Россия) (82 км)
Погода в Сенгейском Шаре (Ненецкий АО, Россия) (145 км)
Погода в Ходоварихе (Ненецкий АО, Россия) (196 км)
Погода в Индиге (Ненецкий АО, Россия) (206 км)
Погода на Мысе Микулкин (Ненецкий АО, Россия) (216 км)
Погода в Канином Носе (Ненецкий АО, Россия) (249 км)
Погода в Нарьян-Маре (Ненецкий АО, Россия) (265 км)
Погода в Шойне (Ненецкий АО, Россия) (270 км)
Погода на Мысе Константиновском (Ненецкий АО, Россия) (278 км)
Погода в Коткино (Ненецкий АО, Россия) (291 км)

Пояснения к столбцам:

Ветер - указаны скорость ветра в м/с - средняя за 10 мин, порывы в срок и между сроками (в фигурных скобках) и направление, откуда дует ветер: С - северный, СВ - северо-восточный, В - восточный, ЮВ - юго-восточный, Ю - южный, ЮЗ - юго-западный, З - западный, СЗ - северо-западный.
Видимость - горизонтальная дальность видимости в метрах или километрах. При видимости от 1 до 10 км при отсутствии осадков обычно наблюдается дымка, при ухудшении видимости до 1 км и менее - туман. В сухую погоду видимость может ухудшаться дымом, пылью или мглою.
Явления - указаны атмосферные явления, наблюдавшиеся в срок или в последний час перед сроком; фигурными скобками обозначены явления, наблюдавшиеся между сроками (за 1-3 часа до срока); квадратными скобками обозначены град или гололедные отложения с указанием их диаметра в мм.
Облачность - указаны через наклонную черту общая и нижняя облачность в баллах и высота нижней границы облаков в метрах; квадратными скобками обозначены формы облаков: Ci - перистые, Cs - перисто-слоистые, Cc - перисто-кучевые, Ac - высококучевые, As - высокослоистые, Sc - слоисто-кучевые, Ns - слоисто-дождевые, Cu - кучевые, Cb - кучево-дождевые. Подробнее классификацию облаков см. в Атласе облаков (PDF).
T - Температура воздуха - температура, измеренная на высоте 2 м над землей.
Td - Температура точки росы - температура, при понижении до которой содержащийся в воздухе водяной пар достигнет насыщения.
f - Относительная влажность воздуха - влажноcть воздуха, измеренная на высоте 2 м над землей.
Te - Эффективная температура - температура, которую ощущает одетый по сезону человек в тени. Характеристика душности погоды. При расчете учитывается влияние влажности воздуха и скорости ветра на теплоощущения человека.
Tes - Эффективная температура на солнце - температура, которую ощущает человек, с поправкой на солнечный нагрев. Характеристика знойности погоды. Зависит от высоты солнца над горизонтом, облачности и скорости ветра. Ночью, в пасмурную погоду, а также при ветре 12 м/с и более поправка равна нулю.
P - Атмосферное давление - приведенное к уровню моря атмосферное давление.
Po - Атмосферное давление - измеренное на уровне метеостанции атмосферное давление.
Tmin - Минимальная температура - минимум температуры воздуха на высоте 2 м над землей.
Tmax - Максимальная температура - максимум температуры воздуха на высоте 2 м над землей.
R - Количество осадков - Количество выпавших осадков за период времени, мм. При наведении курсора мыши на число - период времени, за который выпало указанное количество осадков.
R24 - Количество осадков - Количество выпавших осадков за 24 часа, мм.
S - Снежный покров - Высота снежного покрова, см. При наведении курсора мыши на число - состояние снежного покрова и степень покрытия местности в баллах.